Raleigh-Durham Airport, NC

3:09 PM EDT on September 26, 2017 (GMT -0400)
Raleigh-Durham International

Weather History for KRDU - October, 2015

Change the Weather History Date:

Friday, October 2, 2015

  Actual Average Record
Temperature  
Mean Temperature 58 °F 66 °F  
Max Temperature 60 °F 77 °F 91 °F (1954)
Min Temperature 55 °F 55 °F 32 °F (1947)
Degree Days  
Heating Degree Days 7 2  
Month to date heating degree days 10 4  
Since 1 July heating degree days 12 25  
Cooling Degree Days 0 3  
Month to date cooling degree days 0 7  
Year to date cooling degree days 1851 1675  
Growing Degree Days 8 (Base 50)    
Moisture  
Dew Point 55 °F    
Average Humidity 92    
Maximum Humidity 94    
Minimum Humidity 86    
Precipitation  
Precipitation 2.07 in 0.11 in 2.07 in (2015)
Month to date precipitation 2.41 0.22  
Year to date precipitation 41.24 34.12  
Sea Level Pressure  
Sea Level Pressure 29.86 in    
Wind  
Wind Speed 15 mph (NE)    
Max Wind Speed 23 mph    
Max Gust Speed 33 mph    
Visibility 5 miles    
Events Rain    
T = Trace of Precipitation, MM = Missing Value Source: NWS Daily Summary

Daily Weather History Graph

Daily Weather History Graph

Search for Another Location

Airport or City:

Trip Planner

Search our weather history database for the weather conditions in past years. The results will help you decide how hot, cold, wet, or windy it might be!

Date:

Astronomy

Oct. 02, 2015 Rise Set
Actual Time 7:10 AM EDT 6:57 PM EDT
Civil Twilight 6:45 AM EDT 7:23 PM EDT
Nautical Twilight 6:15 AM EDT 7:52 PM EDT
Astronomical Twilight 5:45 AM EDT 8:22 PM EDT
Moon 10:44 PM EDT (10/2) 12:05 PM EDT (10/2)
Length of Visible Light 12h 38m
Length of Day
11h 46m
Waning Gibbous, 73% of the Moon is Illuminated
Oct 2
Waning Gibbous
Oct 4
Last Quarter
Oct 12
New
Oct 20
First Quarter
Oct 27
Full

Hourly Weather History & Observations

Time (EDT) Temp. Dew Point Humidity Pressure Visibility Wind Dir Wind Speed Gust Speed Precip Events Conditions
12:51 AM 57.9 °F 55.0 °F 90% 29.93 in 9.0 mi NE 15.0 mph 24.2 mph 0.02 in Rain Light Rain
1:51 AM 57.9 °F 55.0 °F 90% 29.91 in 8.0 mi NE 16.1 mph 26.5 mph 0.03 in Rain Light Rain
2:51 AM 57.9 °F 55.9 °F 93% 29.88 in 9.0 mi NNE 13.8 mph 19.6 mph 0.03 in Rain Light Rain
3:51 AM 57.9 °F 55.0 °F 90% 29.91 in 7.0 mi NNE 10.4 mph 18.4 mph 0.01 in Rain Light Rain
4:51 AM 57.9 °F 55.0 °F 90% 29.88 in 6.0 mi NNE 11.5 mph 23.0 mph 0.10 in Rain Rain
5:51 AM 57.0 °F 55.0 °F 93% 29.86 in 7.0 mi NE 17.3 mph 24.2 mph 0.08 in Rain Light Rain
6:24 AM 57.2 °F 55.4 °F 94% 29.85 in 5.0 mi NE 16.1 mph 33.4 mph 0.02 in Rain Rain
6:51 AM 57.9 °F 55.0 °F 90% 29.84 in 5.0 mi NE 16.1 mph 25.3 mph 0.05 in Rain Light Rain
7:51 AM 57.9 °F 55.9 °F 93% 29.85 in 6.0 mi NE 17.3 mph 26.5 mph 0.05 in Rain Light Rain
8:51 AM 59.0 °F 55.9 °F 90% 29.86 in 4.0 mi NE 15.0 mph 24.2 mph 0.04 in Rain Light Rain
9:51 AM 59.0 °F 57.0 °F 93% 29.83 in 4.0 mi NNE 15.0 mph 21.9 mph 0.05 in Rain Light Rain
10:51 AM 59.0 °F 57.0 °F 93% 29.84 in 4.0 mi NE 18.4 mph 29.9 mph 0.01 in Rain Light Rain
11:06 AM 59.0 °F 57.2 °F 94% 29.85 in 1.5 mi NE 16.1 mph 23.0 mph 0.05 in Rain Rain
11:51 AM 59.0 °F 57.0 °F 93% 29.83 in 3.0 mi NE 13.8 mph 24.2 mph 0.45 in Rain Rain
12:51 PM 59.0 °F 55.9 °F 90% 29.85 in 10.0 mi NE 11.5 mph 18.4 mph 0.04 in   Overcast
1:51 PM 59.0 °F 55.9 °F 90% 29.85 in 10.0 mi NE 17.3 mph 24.2 mph N/A   Overcast
2:05 PM 59.0 °F 55.4 °F 88% 29.85 in 1.5 mi NE 12.7 mph 19.6 mph 0.01 in Rain Light Rain
2:51 PM 57.9 °F 55.9 °F 93% 29.84 in 1.5 mi NNE 11.5 mph 18.4 mph 0.06 in Rain Light Rain
2:54 PM 57.2 °F 55.4 °F 94% 29.84 in 3.0 mi NNE 13.8 mph 20.7 mph 0.00 in Rain Light Rain
3:17 PM 57.2 °F 55.4 °F 94% 29.83 in 1.5 mi NNE 12.7 mph 23.0 mph 0.00 in Rain Light Rain
3:51 PM 57.9 °F 55.9 °F 93% 29.82 in 1.5 mi NE 12.7 mph 20.7 mph 0.03 in Rain Light Rain
4:51 PM 57.0 °F 55.0 °F 93% 29.84 in 1.5 mi NNE 12.7 mph 21.9 mph 0.02 in   Light Drizzle
5:51 PM 57.0 °F 55.0 °F 93% 29.85 in 1.5 mi NNE 11.5 mph 23.0 mph 0.03 in Rain Light Rain
6:51 PM 55.9 °F 54.0 °F 93% 29.85 in 1.5 mi NE 16.1 mph 24.2 mph 0.14 in Rain Rain
6:56 PM 55.4 °F 53.6 °F 94% 29.85 in 3.0 mi NE 15.0 mph 24.2 mph 0.01 in Rain Rain
7:51 PM 55.9 °F 54.0 °F 93% 29.87 in 4.0 mi NE 11.5 mph - 0.22 in Rain Rain
8:26 PM 55.4 °F 53.6 °F 94% 29.87 in 4.0 mi NE 16.1 mph 24.2 mph 0.12 in Rain Rain
8:51 PM 55.0 °F 53.1 °F 93% 29.86 in 4.0 mi NE 16.1 mph 25.3 mph 0.23 in Rain Rain
9:51 PM 55.0 °F 53.1 °F 93% 29.86 in 4.0 mi NE 15.0 mph 23.0 mph 0.27 in Rain Rain